| time (UTC) | temp F | wind direction | speed MPH | gust MPH | rain 1hr in | rain 24hr in | rain mn in | humidity % | barometer mb |
| 20260903121603 | 54 | 55 | 0.0 | 0.0 | 0.00 | 0.65 | 0.03 | 93 | 1012.1 |
| 20260903121104 | 54 | 55 | 0.0 | 0.0 | 0.00 | 0.65 | 0.03 | 93 | 1012.1 |
| 20260903121022 | 54 | 55 | 0.0 | 0.0 | 0.00 | 0.65 | 0.03 | 93 | 1012.1 |
| 20260903120603 | 54 | 55 | 0.0 | 0.0 | 0.00 | 0.65 | 0.03 | 93 | 1012.1 |
| 20260903120021 | 54 | 55 | 0.0 | 0.0 | 0.00 | 0.65 | 0.03 | 93 | 1012.0 |
| 20260903115603 | 54 | 55 | 0.0 | 0.0 | 0.00 | 0.65 | 0.03 | 93 | 1012.0 |
| 20260903115104 | 54 | 55 | 0.0 | 0.0 | 0.00 | 0.65 | 0.03 | 93 | 1012.2 |
| 20260903114604 | 54 | 55 | 0.0 | 0.0 | 0.00 | 0.65 | 0.03 | 93 | 1012.1 |
| 20260903114103 | 54 | 55 | 0.0 | 0.0 | 0.00 | 0.65 | 0.03 | 92 | 1012.1 |
| 20260903114022 | 54 | 55 | 0.0 | 0.0 | 0.00 | 0.65 | 0.03 | 92 | 1012.3 |
| 20260903113604 | 54 | 55 | 0.0 | 0.0 | 0.00 | 0.65 | 0.03 | 92 | 1012.3 |
| 20260903113104 | 54 | 55 | 0.0 | 0.0 | 0.00 | 0.65 | 0.03 | 92 | 1012.4 |
| 20260903112604 | 54 | 55 | 0.0 | 0.0 | 0.00 | 0.65 | 0.03 | 92 | 1012.3 |
| 20260903112104 | 54 | 55 | 0.0 | 0.0 | 0.00 | 0.65 | 0.03 | 92 | 1012.3 |
| 20260903112022 | 54 | 55 | 0.0 | 0.0 | 0.00 | 0.65 | 0.03 | 92 | 1012.3 |
| 20260903111604 | 54 | 55 | 0.0 | 0.0 | 0.00 | 0.65 | 0.03 | 92 | 1012.3 |
| 20260903111103 | 54 | 55 | 0.0 | 0.0 | 0.00 | 0.65 | 0.03 | 92 | 1012.3 |
| 20260903111022 | 54 | 55 | 0.0 | 0.0 | 0.00 | 0.65 | 0.03 | 92 | 1012.3 |
| 20260903110604 | 54 | 55 | 0.0 | 0.0 | 0.00 | 0.65 | 0.03 | 92 | 1012.3 |
| 20260903110104 | 54 | 55 | 0.0 | 0.0 | 0.00 | 0.65 | 0.03 | 92 | 1012.2 |
| 20260903110022 | 54 | 55 | 0.0 | 0.0 | 0.00 | 0.65 | 0.03 | 92 | 1012.3 |
| 20260903105604 | 54 | 55 | 0.0 | 0.0 | 0.00 | 0.65 | 0.03 | 92 | 1012.3 |
| 20260903105104 | 54 | 55 | 0.0 | 0.0 | 0.00 | 0.65 | 0.03 | 92 | 1012.2 |
| 20260903105022 | 54 | 55 | 0.0 | 0.0 | 0.00 | 0.65 | 0.03 | 92 | 1012.3 |
| 20260903104604 | 54 | 55 | 0.0 | 0.0 | 0.00 | 0.65 | 0.03 | 92 | 1012.3 |
| 20260903104103 | 54 | 55 | 0.0 | 0.0 | 0.00 | 0.65 | 0.03 | 92 | 1012.2 |
| 20260903104020 | 54 | 55 | 0.0 | 0.0 | 0.00 | 0.65 | 0.03 | 92 | 1012.3 |
| 20260903103603 | 54 | 55 | 0.0 | 0.0 | 0.00 | 0.65 | 0.03 | 92 | 1012.3 |
| 20260903103104 | 54 | 55 | 0.0 | 0.0 | 0.00 | 0.65 | 0.03 | 92 | 1012.2 |
| 20260903103022 | 54 | 55 | 0.0 | 0.0 | 0.00 | 0.65 | 0.03 | 92 | 1012.4 |
| 20260903102604 | 54 | 55 | 0.0 | 0.0 | 0.00 | 0.65 | 0.03 | 92 | 1012.4 |
| 20260903102104 | 54 | 55 | 0.0 | 0.0 | 0.00 | 0.65 | 0.03 | 92 | 1012.4 |
| 20260903102022 | 54 | 55 | 0.0 | 0.0 | 0.00 | 0.65 | 0.03 | 92 | 1012.3 |
| 20260903101604 | 54 | 55 | 0.0 | 0.0 | 0.00 | 0.65 | 0.03 | 92 | 1012.3 |
| 20260903101104 | 54 | 55 | 0.0 | 0.0 | 0.00 | 0.65 | 0.03 | 92 | 1012.4 |
| 20260903101021 | 54 | 55 | 0.0 | 0.0 | 0.00 | 0.65 | 0.03 | 92 | 1012.4 |
| 20260903100603 | 54 | 55 | 0.0 | 0.0 | 0.00 | 0.65 | 0.03 | 92 | 1012.4 |
| 20260903100021 | 54 | 55 | 0.0 | 0.0 | 0.00 | 0.65 | 0.03 | 92 | 1012.4 |
| 20260903095103 | 54 | 55 | 0.0 | 0.0 | 0.00 | 0.65 | 0.03 | 92 | 1012.3 |
| 20260903095021 | 54 | 55 | 0.0 | 0.0 | 0.00 | 0.65 | 0.03 | 92 | 1012.4 |
| 20260903094603 | 54 | 55 | 0.0 | 0.0 | 0.00 | 0.65 | 0.03 | 92 | 1012.4 |
| 20260903094103 | 54 | 55 | 0.0 | 0.0 | 0.00 | 0.65 | 0.03 | 92 | 1012.4 |
| 20260903094021 | 54 | 55 | 0.0 | 0.0 | 0.00 | 0.65 | 0.03 | 92 | 1012.5 |
| 20260903093604 | 54 | 55 | 0.0 | 0.0 | 0.00 | 0.65 | 0.03 | 92 | 1012.5 |
| 20260903093104 | 54 | 55 | 0.0 | 0.0 | 0.00 | 0.65 | 0.03 | 92 | 1012.6 |
| 20260903093023 | 54 | 55 | 0.0 | 0.0 | 0.00 | 0.65 | 0.03 | 92 | 1012.6 |
| 20260903092604 | 54 | 55 | 0.0 | 0.0 | 0.00 | 0.65 | 0.03 | 92 | 1012.6 |
| 20260903092104 | 54 | 55 | 0.0 | 0.0 | 0.00 | 0.65 | 0.03 | 92 | 1012.6 |
| 20260903092021 | 54 | 55 | 0.0 | 0.0 | 0.00 | 0.65 | 0.03 | 92 | 1012.6 |
| 20260903091603 | 54 | 55 | 0.0 | 0.0 | 0.00 | 0.65 | 0.03 | 92 | 1012.6 |
| 20260903091104 | 54 | 54 | 0.0 | 0.0 | 0.00 | 0.65 | 0.03 | 92 | 1012.6 |
| 20260903090604 | 54 | 54 | 0.0 | 0.0 | 0.00 | 0.65 | 0.03 | 92 | 1012.6 |
| 20260903085604 | 54 | 54 | 0.0 | 0.0 | 0.00 | 0.65 | 0.03 | 92 | 1012.6 |
| 20260903085022 | 54 | 53 | 0.0 | 0.0 | 0.00 | 0.65 | 0.03 | 92 | 1012.6 |
| 20260903084104 | 54 | 51 | 0.0 | 0.0 | 0.01 | 0.65 | 0.03 | 92 | 1012.6 |
| 20260903083603 | 55 | 51 | 0.0 | 0.0 | 0.01 | 0.65 | 0.03 | 92 | 1012.5 |
| 20260903083022 | 55 | 44 | 0.0 | 0.0 | 0.02 | 0.65 | 0.03 | 92 | 1012.5 |
| 20260903082604 | 55 | 44 | 0.0 | 0.0 | 0.02 | 0.65 | 0.03 | 92 | 1012.5 |
| 20260903082104 | 55 | 34 | 0.0 | 0.0 | 0.02 | 0.65 | 0.03 | 92 | 1012.5 |
| 20260903082021 | 55 | 34 | 0.0 | 0.0 | 0.03 | 0.65 | 0.03 | 92 | 1012.5 |
| 20260903081604 | 55 | 34 | 0.0 | 0.0 | 0.03 | 0.65 | 0.03 | 92 | 1012.5 |
| 20260903081104 | 55 | 34 | 0.0 | 0.0 | 0.03 | 0.65 | 0.03 | 92 | 1012.4 |
| 20260903081022 | 55 | 34 | 0.0 | 0.0 | 0.03 | 0.65 | 0.03 | 92 | 1012.4 |
| 20260903080603 | 55 | 34 | 0.0 | 0.0 | 0.03 | 0.65 | 0.03 | 92 | 1012.4 |
| 20260903080104 | 55 | 32 | 0.0 | 0.0 | 0.03 | 0.65 | 0.03 | 92 | 1012.5 |
| 20260903075103 | 55 | 31 | 0.0 | 0.0 | 0.03 | 0.65 | 0.03 | 92 | 1012.4 |
| 20260903075022 | 55 | 27 | 0.0 | 0.0 | 0.03 | 0.65 | 0.03 | 92 | 1012.4 |
| 20260903074603 | 55 | 27 | 0.0 | 0.0 | 0.03 | 0.65 | 0.03 | 92 | 1012.4 |
| 20260903074104 | 55 | 26 | 0.0 | 0.0 | 0.02 | 0.64 | 0.02 | 92 | 1012.2 |
| 20260903074022 | 55 | 24 | 0.0 | 0.0 | 0.03 | 0.64 | 0.02 | 91 | 1012.2 |
| 20260903073604 | 55 | 24 | 0.0 | 0.0 | 0.03 | 0.64 | 0.02 | 91 | 1012.2 |
| 20260903072603 | 55 | 25 | 0.0 | 0.0 | 0.02 | 0.63 | 0.01 | 92 | 1012.1 |
| 20260903072104 | 55 | 19 | 0.0 | 0.0 | 0.03 | 0.63 | 0.01 | 92 | 1011.9 |
| 20260903071104 | 55 | 24 | 0.0 | 1.0 | 0.02 | 0.62 | 0.00 | 92 | 1012.1 |
| 20260903071022 | 56 | 48 | 0.0 | 3.0 | 0.03 | 0.62 | 0.00 | 92 | 1012.1 |
| 20260903070103 | 56 | 53 | 0.0 | 3.0 | 0.04 | 0.62 | 0.00 | 92 | 1012.0 |
| 20260903070021 | 56 | 19 | 1.0 | 5.0 | 0.05 | 0.62 | 0.62 | 92 | 1011.9 |
| 20260903065104 | 56 | 10 | 0.0 | 0.0 | 0.06 | 0.62 | 0.62 | 92 | 1012.0 |
| 20260903065023 | 56 | 16 | 0.0 | 5.0 | 0.07 | 0.62 | 0.62 | 92 | 1011.9 |
| 20260903064603 | 56 | 16 | 0.0 | 5.0 | 0.07 | 0.62 | 0.62 | 92 | 1011.9 |
| 20260903064103 | 56 | 340 | 2.0 | 6.0 | 0.07 | 0.62 | 0.62 | 92 | 1011.8 |
| 20260903064022 | 57 | 8 | 0.0 | 3.0 | 0.08 | 0.62 | 0.62 | 93 | 1011.8 |
| 20260903063604 | 57 | 8 | 0.0 | 3.0 | 0.08 | 0.62 | 0.62 | 93 | 1011.8 |
| 20260903063022 | 57 | 0 | 0.0 | 0.0 | 0.07 | 0.61 | 0.61 | 93 | 1011.8 |
| 20260903062603 | 57 | 0 | 0.0 | 0.0 | 0.07 | 0.61 | 0.61 | 93 | 1011.8 |
| 20260903062104 | 57 | 0 | 0.0 | 0.0 | 0.06 | 0.60 | 0.60 | 93 | 1011.9 |
| 20260903062022 | 57 | 0 | 0.0 | 0.0 | 0.06 | 0.60 | 0.60 | 93 | 1011.8 |
| 20260903061604 | 57 | 0 | 0.0 | 0.0 | 0.06 | 0.60 | 0.60 | 93 | 1011.8 |
| 20260903061104 | 57 | 0 | 0.0 | 0.0 | 0.06 | 0.60 | 0.60 | 93 | 1011.9 |
| 20260903061022 | 57 | 0 | 0.0 | 0.0 | 0.05 | 0.59 | 0.59 | 93 | 1011.9 |
| 20260903060603 | 57 | 0 | 0.0 | 0.0 | 0.05 | 0.59 | 0.59 | 93 | 1011.9 |
| 20260903060104 | 57 | 0 | 0.0 | 0.0 | 0.04 | 0.58 | 0.58 | 93 | 1012.0 |
| 20260903060022 | 57 | 0 | 0.0 | 0.0 | 0.03 | 0.57 | 0.57 | 93 | 1012.0 |
| 20260903055604 | 57 | 0 | 0.0 | 0.0 | 0.03 | 0.57 | 0.57 | 93 | 1012.0 |
| 20260903055104 | 57 | 0 | 0.0 | 0.0 | 0.02 | 0.56 | 0.56 | 93 | 1011.9 |
| 20260903055022 | 57 | 0 | 0.0 | 0.0 | 0.02 | 0.55 | 0.55 | 93 | 1011.9 |
| 20260903054603 | 57 | 0 | 0.0 | 0.0 | 0.02 | 0.55 | 0.55 | 93 | 1011.9 |
| 20260903054104 | 57 | 0 | 0.0 | 0.0 | 0.02 | 0.55 | 0.55 | 93 | 1011.9 |
| 20260903054022 | 57 | 0 | 0.0 | 0.0 | 0.01 | 0.54 | 0.54 | 93 | 1011.9 |
| 20260903053604 | 57 | 0 | 0.0 | 0.0 | 0.01 | 0.54 | 0.54 | 93 | 1011.9 |
| 20260903053104 | 57 | 0 | 0.0 | 0.0 | 0.01 | 0.54 | 0.54 | 93 | 1011.9 |
| 20260903053022 | 57 | 0 | 0.0 | 0.0 | 0.01 | 0.54 | 0.54 | 93 | 1011.8 |
| 20260903052604 | 57 | 0 | 0.0 | 0.0 | 0.01 | 0.54 | 0.54 | 93 | 1011.8 |
| 20260903052104 | 57 | 0 | 0.0 | 0.0 | 0.01 | 0.54 | 0.54 | 93 | 1011.9 |
| 20260903052021 | 57 | 0 | 0.0 | 0.0 | 0.01 | 0.54 | 0.54 | 93 | 1011.9 |
| 20260903051604 | 57 | 0 | 0.0 | 0.0 | 0.01 | 0.54 | 0.54 | 93 | 1011.9 |
| 20260903051104 | 57 | 0 | 0.0 | 0.0 | 0.01 | 0.54 | 0.54 | 93 | 1011.9 |
| 20260903051022 | 57 | 0 | 0.0 | 0.0 | 0.01 | 0.54 | 0.54 | 93 | 1011.9 |
| 20260903050604 | 57 | 0 | 0.0 | 0.0 | 0.01 | 0.54 | 0.54 | 93 | 1011.9 |
| 20260903050104 | 57 | 0 | 0.0 | 0.0 | 0.02 | 0.54 | 0.54 | 93 | 1011.8 |
| 20260903050021 | 57 | 0 | 0.0 | 0.0 | 0.02 | 0.54 | 0.54 | 93 | 1011.6 |
| 20260903045603 | 57 | 0 | 0.0 | 0.0 | 0.02 | 0.54 | 0.54 | 93 | 1011.6 |
| 20260903045104 | 57 | 0 | 0.0 | 0.0 | 0.02 | 0.54 | 0.54 | 92 | 1011.7 |
| 20260903045021 | 57 | 0 | 0.0 | 0.0 | 0.01 | 0.53 | 0.53 | 93 | 1011.7 |
| 20260903044604 | 57 | 0 | 0.0 | 0.0 | 0.01 | 0.53 | 0.53 | 93 | 1011.7 |
| 20260903044104 | 57 | 0 | 0.0 | 0.0 | 0.01 | 0.53 | 0.53 | 92 | 1011.5 |
| 20260903044022 | 57 | 0 | 0.0 | 0.0 | 0.01 | 0.53 | 0.53 | 92 | 1011.6 |
| 20260903043604 | 57 | 0 | 0.0 | 0.0 | 0.01 | 0.53 | 0.53 | 92 | 1011.6 |
| 20260903043022 | 57 | 0 | 0.0 | 0.0 | 0.01 | 0.53 | 0.53 | 92 | 1011.7 |
| 20260903042603 | 57 | 0 | 0.0 | 0.0 | 0.01 | 0.53 | 0.53 | 92 | 1011.7 |
| 20260903042103 | 57 | 0 | 0.0 | 0.0 | 0.01 | 0.53 | 0.53 | 92 | 1011.5 |
| 20260903042021 | 57 | 0 | 0.0 | 0.0 | 0.01 | 0.53 | 0.53 | 92 | 1011.6 |
| 20260903041604 | 57 | 0 | 0.0 | 0.0 | 0.01 | 0.53 | 0.53 | 92 | 1011.6 |
| 20260903041104 | 57 | 0 | 0.0 | 0.0 | 0.02 | 0.53 | 0.53 | 92 | 1011.6 |
| 20260903041023 | 57 | 0 | 0.0 | 0.0 | 0.02 | 0.53 | 0.53 | 92 | 1011.4 |
| 20260903040604 | 57 | 0 | 0.0 | 0.0 | 0.02 | 0.53 | 0.53 | 92 | 1011.4 |
| 20260903040103 | 57 | 0 | 0.0 | 0.0 | 0.02 | 0.52 | 0.52 | 92 | 1011.4 |
| 20260903035604 | 57 | 0 | 0.0 | 0.0 | 0.02 | 0.52 | 0.52 | 92 | 1011.5 |
| 20260903035104 | 57 | 0 | 0.0 | 0.0 | 0.03 | 0.52 | 0.52 | 92 | 1011.4 |
| 20260903035022 | 57 | 0 | 0.0 | 0.0 | 0.03 | 0.52 | 0.52 | 92 | 1011.3 |
| 20260903034603 | 57 | 0 | 0.0 | 0.0 | 0.03 | 0.52 | 0.52 | 92 | 1011.3 |
| 20260903034103 | 57 | 0 | 0.0 | 0.0 | 0.03 | 0.52 | 0.52 | 92 | 1011.1 |
| 20260903034022 | 57 | 0 | 0.0 | 0.0 | 0.03 | 0.52 | 0.52 | 92 | 1010.9 |
| 20260903033604 | 57 | 0 | 0.0 | 0.0 | 0.03 | 0.52 | 0.52 | 92 | 1010.9 |
| 20260903033104 | 57 | 0 | 0.0 | 0.0 | 0.03 | 0.52 | 0.52 | 92 | 1010.9 |
| 20260903033023 | 57 | 0 | 0.0 | 0.0 | 0.03 | 0.52 | 0.52 | 92 | 1010.8 |
| 20260903032603 | 57 | 0 | 0.0 | 0.0 | 0.03 | 0.52 | 0.52 | 92 | 1010.8 |
| 20260903032104 | 57 | 355 | 0.0 | 0.0 | 0.03 | 0.52 | 0.52 | 92 | 1010.8 |
| 20260903032022 | 57 | 355 | 0.0 | 0.0 | 0.04 | 0.52 | 0.52 | 92 | 1010.8 |
| 20260903031603 | 57 | 355 | 0.0 | 0.0 | 0.04 | 0.52 | 0.52 | 92 | 1010.8 |
| 20260903031104 | 57 | 355 | 0.0 | 0.0 | 0.03 | 0.51 | 0.51 | 92 | 1010.7 |
| 20260903031022 | 57 | 355 | 0.0 | 0.0 | 0.04 | 0.51 | 0.51 | 92 | 1010.7 |
| 20260903030604 | 57 | 355 | 0.0 | 0.0 | 0.04 | 0.51 | 0.51 | 92 | 1010.7 |
| 20260903030022 | 57 | 355 | 0.0 | 0.0 | 0.03 | 0.50 | 0.50 | 92 | 1010.6 |
| 20260903025604 | 57 | 355 | 0.0 | 0.0 | 0.03 | 0.50 | 0.50 | 92 | 1010.6 |
| 20260903025103 | 57 | 355 | 0.0 | 0.0 | 0.02 | 0.49 | 0.49 | 92 | 1010.7 |
| 20260903025021 | 58 | 355 | 0.0 | 0.0 | 0.02 | 0.49 | 0.49 | 92 | 1010.6 |
| 20260903024604 | 58 | 355 | 0.0 | 0.0 | 0.02 | 0.49 | 0.49 | 92 | 1010.6 |
| 20260903024103 | 58 | 355 | 0.0 | 0.0 | 0.02 | 0.49 | 0.49 | 92 | 1010.6 |
| 20260903024021 | 58 | 355 | 0.0 | 0.0 | 0.02 | 0.49 | 0.49 | 92 | 1010.5 |
| 20260903023604 | 58 | 355 | 0.0 | 0.0 | 0.02 | 0.49 | 0.49 | 92 | 1010.5 |
| 20260903023103 | 58 | 355 | 0.0 | 0.0 | 0.02 | 0.49 | 0.49 | 92 | 1010.5 |
| 20260903023023 | 58 | 355 | 0.0 | 0.0 | 0.02 | 0.49 | 0.49 | 92 | 1010.4 |
| 20260903022603 | 58 | 355 | 0.0 | 0.0 | 0.02 | 0.49 | 0.49 | 92 | 1010.4 |
| 20260903021604 | 58 | 0 | 0.0 | 0.0 | 0.02 | 0.48 | 0.48 | 92 | 1010.5 |
| 20260903021103 | 58 | 5 | 0.0 | 0.0 | 0.02 | 0.48 | 0.48 | 92 | 1010.6 |
| 20260903021022 | 58 | 5 | 0.0 | 0.0 | 0.01 | 0.47 | 0.47 | 92 | 1010.8 |
| 20260903020604 | 58 | 5 | 0.0 | 0.0 | 0.01 | 0.47 | 0.47 | 92 | 1010.8 |
| 20260903020104 | 58 | 8 | 0.0 | 0.0 | 0.01 | 0.47 | 0.47 | 92 | 1010.7 |
| 20260903020023 | 58 | 10 | 0.0 | 0.0 | 0.01 | 0.47 | 0.47 | 91 | 1010.6 |
| 20260903015604 | 58 | 10 | 0.0 | 0.0 | 0.01 | 0.47 | 0.47 | 91 | 1010.6 |
| 20260903015021 | 58 | 10 | 0.0 | 0.0 | 0.03 | 0.47 | 0.47 | 91 | 1010.3 |
| 20260903014604 | 58 | 10 | 0.0 | 0.0 | 0.03 | 0.47 | 0.47 | 91 | 1010.3 |
| 20260903014104 | 58 | 10 | 0.0 | 0.0 | 0.03 | 0.47 | 0.47 | 91 | 1010.3 |
| 20260903014021 | 58 | 10 | 0.0 | 0.0 | 0.04 | 0.47 | 0.47 | 91 | 1010.4 |
| 20260903013604 | 58 | 10 | 0.0 | 0.0 | 0.04 | 0.47 | 0.47 | 91 | 1010.4 |
| 20260903013023 | 58 | 9 | 0.0 | 0.0 | 0.06 | 0.47 | 0.47 | 91 | 1010.3 |
| 20260903012604 | 58 | 9 | 0.0 | 0.0 | 0.06 | 0.47 | 0.47 | 91 | 1010.3 |
| 20260903012104 | 58 | 9 | 0.0 | 0.0 | 0.07 | 0.47 | 0.47 | 91 | 1010.3 |
| 20260903012022 | 58 | 9 | 0.0 | 0.0 | 0.07 | 0.46 | 0.46 | 91 | 1010.3 |
| 20260903011604 | 58 | 9 | 0.0 | 0.0 | 0.07 | 0.46 | 0.46 | 91 | 1010.3 |
| 20260903011104 | 58 | 14 | 0.0 | 0.0 | 0.08 | 0.46 | 0.46 | 91 | 1010.5 |
| 20260903011021 | 58 | 19 | 0.0 | 0.0 | 0.09 | 0.46 | 0.46 | 91 | 1010.3 |
| 20260903010603 | 58 | 19 | 0.0 | 0.0 | 0.09 | 0.46 | 0.46 | 91 | 1010.3 |
| 20260903010104 | 58 | 19 | 0.0 | 0.0 | 0.10 | 0.46 | 0.46 | 91 | 1010.6 |
| 20260903010023 | 58 | 18 | 0.0 | 0.0 | 0.10 | 0.46 | 0.46 | 91 | 1010.5 |
| 20260903005604 | 58 | 18 | 0.0 | 0.0 | 0.10 | 0.46 | 0.46 | 91 | 1010.5 |
| 20260903005104 | 58 | 25 | 0.0 | 0.0 | 0.10 | 0.45 | 0.45 | 91 | 1010.3 |
| 20260903005022 | 58 | 28 | 0.0 | 0.0 | 0.10 | 0.44 | 0.44 | 91 | 1010.2 |
| 20260903004604 | 58 | 28 | 0.0 | 0.0 | 0.10 | 0.44 | 0.44 | 91 | 1010.2 |
| 20260903004104 | 58 | 39 | 0.0 | 0.0 | 0.11 | 0.44 | 0.44 | 91 | 1010.2 |
| 20260903004022 | 58 | 38 | 0.0 | 0.0 | 0.11 | 0.43 | 0.43 | 91 | 1010.1 |
| 20260903003603 | 58 | 38 | 0.0 | 0.0 | 0.11 | 0.43 | 0.43 | 91 | 1010.1 |
| 20260903003024 | 58 | 27 | 0.0 | 0.0 | 0.11 | 0.41 | 0.41 | 91 | 1010.3 |
| 20260903002603 | 58 | 27 | 0.0 | 0.0 | 0.11 | 0.41 | 0.41 | 91 | 1010.3 |
| 20260903002104 | 58 | 28 | 0.0 | 0.0 | 0.11 | 0.40 | 0.40 | 91 | 1010.4 |
| 20260903002022 | 58 | 22 | 0.0 | 0.0 | 0.12 | 0.39 | 0.39 | 91 | 1010.3 |
| 20260903001604 | 58 | 22 | 0.0 | 0.0 | 0.12 | 0.39 | 0.39 | 91 | 1010.3 |
| 20260903001104 | 59 | 30 | 0.0 | 3.0 | 0.12 | 0.38 | 0.38 | 91 | 1010.3 |
| 20260903001023 | 59 | 5 | 0.0 | 2.0 | 0.12 | 0.37 | 0.37 | 91 | 1010.4 |
| 20260903000604 | 59 | 5 | 0.0 | 2.0 | 0.12 | 0.37 | 0.37 | 91 | 1010.4 |
| 20260903000104 | 59 | 22 | 0.0 | 0.0 | 0.12 | 0.36 | 0.36 | 91 | 1010.1 |
| 20260902235604 | 59 | 8 | 0.0 | 0.0 | 0.13 | 0.36 | 0.36 | 91 | 1010.0 |
| 20260902235104 | 59 | 11 | 0.0 | 3.0 | 0.13 | 0.35 | 0.35 | 91 | 1010.0 |
| 20260902235022 | 59 | 1 | 0.0 | 0.0 | 0.12 | 0.34 | 0.34 | 90 | 1010.2 |
| 20260902234604 | 59 | 1 | 0.0 | 0.0 | 0.12 | 0.34 | 0.34 | 90 | 1010.2 |
| 20260902234022 | 59 | 18 | 0.0 | 0.0 | 0.11 | 0.32 | 0.32 | 90 | 1010.1 |
| 20260902233604 | 59 | 18 | 0.0 | 0.0 | 0.11 | 0.32 | 0.32 | 90 | 1010.1 |
| 20260902233103 | 59 | 9 | 0.0 | 0.0 | 0.11 | 0.31 | 0.31 | 90 | 1009.9 |
| 20260902233024 | 59 | 28 | 0.0 | 5.0 | 0.10 | 0.30 | 0.30 | 90 | 1009.9 |
| 20260902232604 | 59 | 28 | 0.0 | 5.0 | 0.10 | 0.30 | 0.30 | 90 | 1009.9 |
| 20260902232104 | 59 | 0 | 1.0 | 5.0 | 0.09 | 0.29 | 0.29 | 89 | 1009.9 |
| 20260902231604 | 60 | 350 | 0.0 | 3.0 | 0.07 | 0.27 | 0.27 | 89 | 1010.0 |
| 20260902231103 | 60 | 349 | 1.0 | 3.0 | 0.06 | 0.26 | 0.26 | 89 | 1009.9 |
| 20260902231022 | 60 | 9 | 0.0 | 0.0 | 0.06 | 0.25 | 0.25 | 89 | 1009.8 |
| 20260902230604 | 60 | 9 | 0.0 | 0.0 | 0.06 | 0.25 | 0.25 | 89 | 1009.8 |
| 20260902230104 | 60 | 340 | 0.0 | 0.0 | 0.06 | 0.24 | 0.24 | 89 | 1009.7 |
| 20260902230024 | 60 | 0 | 0.0 | 2.0 | 0.05 | 0.23 | 0.23 | 88 | 1009.6 |
| 20260902225604 | 60 | 0 | 0.0 | 2.0 | 0.05 | 0.23 | 0.23 | 88 | 1009.6 |
| 20260902225104 | 60 | 343 | 0.0 | 1.0 | 0.04 | 0.22 | 0.22 | 89 | 1009.7 |
| 20260902225022 | 61 | 330 | 0.0 | 0.0 | 0.05 | 0.22 | 0.22 | 89 | 1009.7 |
| 20260902224604 | 61 | 330 | 0.0 | 0.0 | 0.05 | 0.22 | 0.22 | 89 | 1009.7 |
| 20260902224104 | 61 | 344 | 0.0 | 0.0 | 0.05 | 0.21 | 0.21 | 88 | 1009.6 |
| 20260902224022 | 61 | 341 | 0.0 | 0.0 | 0.06 | 0.21 | 0.21 | 88 | 1009.7 |
| 20260902223604 | 61 | 341 | 0.0 | 0.0 | 0.06 | 0.21 | 0.21 | 88 | 1009.7 |
| 20260902223104 | 61 | 337 | 0.0 | 0.0 | 0.05 | 0.20 | 0.20 | 89 | 1009.5 |
| 20260902223024 | 61 | 344 | 0.0 | 0.0 | 0.05 | 0.20 | 0.20 | 89 | 1009.5 |
| 20260902222604 | 61 | 344 | 0.0 | 0.0 | 0.05 | 0.20 | 0.20 | 89 | 1009.5 |
| 20260902222104 | 61 | 354 | 0.0 | 0.0 | 0.06 | 0.20 | 0.20 | 89 | 1009.5 |
| 20260902222022 | 61 | 355 | 0.0 | 0.0 | 0.06 | 0.20 | 0.20 | 89 | 1009.5 |
| 20260902221604 | 61 | 355 | 0.0 | 0.0 | 0.06 | 0.20 | 0.20 | 89 | 1009.5 |
| 20260902221103 | 61 | 355 | 0.0 | 0.0 | 0.07 | 0.20 | 0.20 | 89 | 1009.5 |
| 20260902221022 | 61 | 355 | 0.0 | 0.0 | 0.06 | 0.19 | 0.19 | 89 | 1009.6 |
| 20260902220604 | 61 | 355 | 0.0 | 0.0 | 0.06 | 0.19 | 0.19 | 89 | 1009.6 |
| 20260902220104 | 61 | 355 | 0.0 | 0.0 | 0.06 | 0.18 | 0.18 | 90 | 1009.7 |
| 20260902220024 | 61 | 355 | 0.0 | 0.0 | 0.07 | 0.18 | 0.18 | 89 | 1009.7 |
| 20260902215604 | 61 | 355 | 0.0 | 0.0 | 0.07 | 0.18 | 0.18 | 89 | 1009.7 |
| 20260902215103 | 61 | 355 | 0.0 | 0.0 | 0.08 | 0.18 | 0.18 | 89 | 1009.6 |
| 20260902215022 | 61 | 355 | 0.0 | 0.0 | 0.07 | 0.17 | 0.17 | 89 | 1009.4 |
| 20260902214603 | 61 | 355 | 0.0 | 0.0 | 0.07 | 0.17 | 0.17 | 89 | 1009.4 |
| 20260902214104 | 61 | 355 | 0.0 | 0.0 | 0.07 | 0.16 | 0.16 | 89 | 1009.5 |
| 20260902214023 | 61 | 355 | 0.0 | 0.0 | 0.06 | 0.15 | 0.15 | 89 | 1009.6 |
| 20260902213604 | 61 | 355 | 0.0 | 0.0 | 0.06 | 0.15 | 0.15 | 89 | 1009.6 |
| 20260902213103 | 61 | 355 | 0.0 | 0.0 | 0.06 | 0.15 | 0.15 | 89 | 1009.6 |
| 20260902212604 | 61 | 355 | 0.0 | 0.0 | 0.06 | 0.15 | 0.15 | 89 | 1009.6 |
| 20260902211604 | 61 | 355 | 0.0 | 0.0 | 0.07 | 0.14 | 0.14 | 89 | 1009.7 |
| 20260902211104 | 61 | 355 | 0.0 | 0.0 | 0.06 | 0.13 | 0.13 | 88 | 1009.7 |
| 20260902211022 | 61 | 355 | 0.0 | 0.0 | 0.06 | 0.13 | 0.13 | 88 | 1009.7 |
| 20260902210604 | 61 | 355 | 0.0 | 0.0 | 0.06 | 0.13 | 0.13 | 88 | 1009.7 |
| 20260902210104 | 61 | 355 | 0.0 | 0.0 | 0.05 | 0.12 | 0.12 | 88 | 1009.7 |
| 20260902210025 | 61 | 355 | 0.0 | 0.0 | 0.04 | 0.11 | 0.11 | 88 | 1009.7 |
| 20260902205103 | 61 | 354 | 0.0 | 0.0 | 0.04 | 0.10 | 0.10 | 88 | 1009.6 |
| 20260902205022 | 61 | 337 | 0.0 | 0.0 | 0.04 | 0.10 | 0.10 | 89 | 1009.6 |
| 20260902204604 | 61 | 337 | 0.0 | 0.0 | 0.04 | 0.10 | 0.10 | 89 | 1009.6 |
| 20260902203604 | 61 | 298 | 0.0 | 0.0 | 0.03 | 0.09 | 0.09 | 89 | 1009.9 |
| 20260902203104 | 61 | 298 | 0.0 | 0.0 | 0.03 | 0.09 | 0.09 | 89 | 1009.9 |
| 20260902203025 | 61 | 298 | 0.0 | 0.0 | 0.03 | 0.09 | 0.09 | 89 | 1009.8 |
| 20260902202603 | 61 | 298 | 0.0 | 0.0 | 0.03 | 0.09 | 0.09 | 89 | 1009.8 |
| 20260902202104 | 61 | 298 | 0.0 | 0.0 | 0.02 | 0.08 | 0.08 | 89 | 1009.7 |
| 20260902202023 | 61 | 298 | 0.0 | 0.0 | 0.01 | 0.07 | 0.07 | 89 | 1009.8 |
| 20260902201603 | 61 | 298 | 0.0 | 0.0 | 0.01 | 0.07 | 0.07 | 89 | 1009.8 |
| 20260902201104 | 61 | 298 | 0.0 | 0.0 | 0.01 | 0.07 | 0.07 | 89 | 1009.7 |
| 20260902201022 | 61 | 298 | 0.0 | 0.0 | 0.01 | 0.07 | 0.07 | 89 | 1009.7 |
| 20260902200604 | 61 | 298 | 0.0 | 0.0 | 0.01 | 0.07 | 0.07 | 89 | 1009.7 |
| 20260902200104 | 61 | 5 | 0.0 | 0.0 | 0.02 | 0.07 | 0.07 | 90 | 1009.7 |
| 20260902195604 | 61 | 5 | 0.0 | 0.0 | 0.02 | 0.07 | 0.07 | 89 | 1009.6 |
| 20260902195104 | 61 | 5 | 0.0 | 0.0 | 0.01 | 0.06 | 0.06 | 90 | 1009.6 |
| 20260902195023 | 60 | 5 | 0.0 | 0.0 | 0.01 | 0.06 | 0.06 | 90 | 1009.4 |
| 20260902194603 | 60 | 5 | 0.0 | 0.0 | 0.01 | 0.06 | 0.06 | 90 | 1009.4 |
| 20260902194104 | 60 | 5 | 0.0 | 0.0 | 0.02 | 0.06 | 0.06 | 90 | 1009.5 |
| 20260902194023 | 60 | 5 | 0.0 | 0.0 | 0.02 | 0.06 | 0.06 | 89 | 1009.6 |
| 20260902193104 | 60 | 5 | 0.0 | 0.0 | 0.02 | 0.06 | 0.06 | 89 | 1009.7 |
| 20260902193024 | 60 | 5 | 0.0 | 0.0 | 0.02 | 0.06 | 0.06 | 89 | 1009.7 |
| 20260902192604 | 60 | 5 | 0.0 | 0.0 | 0.02 | 0.06 | 0.06 | 89 | 1009.7 |
| 20260902192104 | 60 | 5 | 0.0 | 0.0 | 0.02 | 0.06 | 0.06 | 89 | 1009.7 |
| 20260902191104 | 59 | 5 | 0.0 | 0.0 | 0.02 | 0.06 | 0.06 | 88 | 1009.9 |
| 20260902190604 | 59 | 5 | 0.0 | 0.0 | 0.02 | 0.06 | 0.06 | 88 | 1009.8 |
| 20260902190104 | 59 | 5 | 0.0 | 0.0 | 0.01 | 0.05 | 0.05 | 88 | 1009.8 |
| 20260902190024 | 59 | 5 | 0.0 | 0.0 | 0.01 | 0.05 | 0.05 | 88 | 1009.7 |
| 20260902185604 | 59 | 5 | 0.0 | 0.0 | 0.01 | 0.05 | 0.05 | 88 | 1009.7 |
| 20260902185104 | 58 | 242 | 0.0 | 0.0 | 0.01 | 0.05 | 0.05 | 88 | 1009.8 |
| 20260902185022 | 58 | 242 | 0.0 | 0.0 | 0.01 | 0.05 | 0.05 | 88 | 1010.0 |
| 20260902184604 | 58 | 242 | 0.0 | 0.0 | 0.01 | 0.05 | 0.05 | 88 | 1010.0 |
| 20260902183603 | 58 | 242 | 0.0 | 0.0 | 0.01 | 0.04 | 0.04 | 88 | 1009.8 |
| 20260902183104 | 58 | 242 | 0.0 | 0.0 | 0.01 | 0.04 | 0.04 | 88 | 1009.9 |
| 20260902183025 | 58 | 242 | 0.0 | 0.0 | 0.01 | 0.04 | 0.04 | 88 | 1010.0 |
| 20260902182603 | 58 | 242 | 0.0 | 0.0 | 0.01 | 0.04 | 0.04 | 88 | 1010.0 |
| 20260902182104 | 58 | 242 | 0.0 | 0.0 | 0.01 | 0.04 | 0.04 | 88 | 1009.8 |
| 20260902182023 | 58 | 240 | 0.0 | 0.0 | 0.02 | 0.04 | 0.04 | 88 | 1009.8 |
| 20260902181604 | 58 | 240 | 0.0 | 0.0 | 0.02 | 0.04 | 0.04 | 88 | 1009.8 |
| 20260902181023 | 58 | 109 | 0.0 | 0.0 | 0.02 | 0.04 | 0.04 | 87 | 1009.8 |
| 20260902180603 | 58 | 109 | 0.0 | 0.0 | 0.02 | 0.04 | 0.04 | 87 | 1009.8 |
| 20260902180023 | 57 | 109 | 0.0 | 0.0 | 0.02 | 0.04 | 0.04 | 87 | 1009.7 |
| 20260902175604 | 57 | 109 | 0.0 | 0.0 | 0.02 | 0.04 | 0.04 | 87 | 1009.7 |
| 20260902175104 | 57 | 109 | 0.0 | 0.0 | 0.03 | 0.04 | 0.04 | 87 | 1009.7 |
| 20260902175023 | 57 | 109 | 0.0 | 0.0 | 0.03 | 0.04 | 0.04 | 86 | 1009.8 |
| 20260902174604 | 57 | 109 | 0.0 | 0.0 | 0.03 | 0.04 | 0.04 | 86 | 1009.8 |
| 20260902174104 | 57 | 109 | 0.0 | 0.0 | 0.02 | 0.03 | 0.03 | 86 | 1009.7 |
| 20260902174022 | 57 | 109 | 0.0 | 0.0 | 0.02 | 0.03 | 0.03 | 86 | 1009.7 |
| 20260902173603 | 57 | 109 | 0.0 | 0.0 | 0.02 | 0.03 | 0.03 | 86 | 1009.7 |
| 20260902173104 | 57 | 109 | 0.0 | 0.0 | 0.02 | 0.03 | 0.03 | 86 | 1009.6 |
| 20260902173024 | 57 | 109 | 0.0 | 0.0 | 0.03 | 0.03 | 0.03 | 86 | 1009.7 |
| 20260902172104 | 57 | 109 | 0.0 | 0.0 | 0.03 | 0.03 | 0.03 | 86 | 1009.8 |
| 20260902172023 | 57 | 109 | 0.0 | 0.0 | 0.02 | 0.02 | 0.02 | 86 | 1009.8 |
| 20260902171104 | 57 | 109 | 0.0 | 0.0 | 0.02 | 0.02 | 0.02 | 86 | 1009.8 |
| 20260902171023 | 57 | 109 | 0.0 | 0.0 | 0.02 | 0.02 | 0.02 | 85 | 1009.7 |
| 20260902170604 | 57 | 109 | 0.0 | 0.0 | 0.02 | 0.02 | 0.02 | 85 | 1009.7 |
| 20260902170104 | 57 | 109 | 0.0 | 0.0 | 0.02 | 0.02 | 0.02 | 85 | 1009.7 |
| 20260902170023 | 57 | 109 | 0.0 | 0.0 | 0.02 | 0.02 | 0.02 | 85 | 1009.6 |
| 20260902165604 | 57 | 109 | 0.0 | 0.0 | 0.02 | 0.02 | 0.02 | 85 | 1009.6 |
| 20260902165104 | 57 | 109 | 0.0 | 0.0 | 0.01 | 0.01 | 0.01 | 85 | 1009.6 |
| 20260902165023 | 57 | 109 | 0.0 | 0.0 | 0.01 | 0.01 | 0.01 | 84 | 1009.6 |
| 20260902164604 | 57 | 109 | 0.0 | 0.0 | 0.01 | 0.01 | 0.01 | 84 | 1009.6 |
| 20260902164104 | 57 | 109 | 0.0 | 0.0 | 0.01 | 0.01 | 0.01 | 84 | 1009.6 |
| 20260902164023 | 57 | 109 | 0.0 | 0.0 | 0.01 | 0.01 | 0.01 | 84 | 1009.7 |
| 20260902163604 | 57 | 109 | 0.0 | 0.0 | 0.01 | 0.01 | 0.01 | 84 | 1009.7 |
| 20260902163104 | 57 | 109 | 0.0 | 0.0 | 0.01 | 0.01 | 0.01 | 84 | 1009.6 |
| 20260902163025 | 57 | 109 | 0.0 | 0.0 | 0.00 | 0.00 | 0.00 | 83 | 1009.6 |
| 20260902162604 | 57 | 109 | 0.0 | 0.0 | 0.00 | 0.00 | 0.00 | 83 | 1009.6 |
| 20260902162103 | 57 | 109 | 0.0 | 0.0 | 0.00 | 0.00 | 0.00 | 83 | 1009.6 |
| 20260902162023 | 57 | 109 | 0.0 | 0.0 | 0.00 | 0.00 | 0.00 | 83 | 1009.7 |
| 20260902161604 | 57 | 109 | 0.0 | 0.0 | 0.00 | 0.00 | 0.00 | 83 | 1009.7 |
| 20260902161104 | 57 | 109 | 0.0 | 0.0 | 0.00 | 0.00 | 0.00 | 82 | 1009.7 |
| 20260902161023 | 57 | 110 | 0.0 | 0.0 | 0.00 | 0.00 | 0.00 | 82 | 1009.7 |
| 20260902160604 | 57 | 110 | 0.0 | 0.0 | 0.00 | 0.00 | 0.00 | 82 | 1009.7 |
| 20260902160104 | 57 | 110 | 0.0 | 0.0 | 0.00 | 0.00 | 0.00 | 81 | 1009.7 |
| 20260902160025 | 57 | 110 | 0.0 | 0.0 | 0.00 | 0.00 | 0.00 | 81 | 1009.7 |
| 20260902155604 | 57 | 110 | 0.0 | 0.0 | 0.00 | 0.00 | 0.00 | 81 | 1009.7 |
| 20260902155104 | 57 | 110 | 0.0 | 0.0 | 0.00 | 0.00 | 0.00 | 80 | 1009.7 |
| 20260902155023 | 57 | 110 | 0.0 | 0.0 | 0.00 | 0.00 | 0.00 | 79 | 1009.7 |
| 20260902154104 | 57 | 113 | 0.0 | 0.0 | 0.00 | 0.00 | 0.00 | 78 | 1009.8 |
| 20260902154022 | 57 | 153 | 0.0 | 0.0 | 0.00 | 0.00 | 0.00 | 78 | 1009.9 |
| 20260902153604 | 57 | 153 | 0.0 | 0.0 | 0.00 | 0.00 | 0.00 | 78 | 1009.9 |
| 20260902153104 | 57 | 153 | 0.0 | 0.0 | 0.00 | 0.00 | 0.00 | 79 | 1009.9 |
| 20260902153024 | 56 | 153 | 0.0 | 0.0 | 0.00 | 0.00 | 0.00 | 80 | 1009.8 |
| 20260902152604 | 56 | 153 | 0.0 | 0.0 | 0.00 | 0.00 | 0.00 | 80 | 1009.8 |
| 20260902152104 | 56 | 153 | 0.0 | 0.0 | 0.00 | 0.00 | 0.00 | 79 | 1009.9 |
| 20260902152022 | 56 | 154 | 0.0 | 0.0 | 0.00 | 0.00 | 0.00 | 79 | 1010.0 |
| 20260902151604 | 56 | 154 | 0.0 | 0.0 | 0.00 | 0.00 | 0.00 | 79 | 1010.0 |
| 20260902151104 | 56 | 166 | 0.0 | 0.0 | 0.00 | 0.00 | 0.00 | 80 | 1010.0 |
| 20260902150604 | 56 | 166 | 0.0 | 0.0 | 0.00 | 0.00 | 0.00 | 80 | 1009.9 |
| 20260902150104 | 56 | 166 | 0.0 | 0.0 | 0.00 | 0.00 | 0.00 | 80 | 1010.0 |
| 20260902150025 | 55 | 166 | 0.0 | 0.0 | 0.00 | 0.00 | 0.00 | 80 | 1010.0 |
| 20260902145603 | 55 | 166 | 0.0 | 0.0 | 0.00 | 0.00 | 0.00 | 80 | 1010.0 |
| 20260902145022 | 55 | 166 | 0.0 | 0.0 | 0.00 | 0.00 | 0.00 | 81 | 1010.0 |
| 20260902144604 | 55 | 166 | 0.0 | 0.0 | 0.00 | 0.00 | 0.00 | 81 | 1010.0 |
| 20260902144104 | 55 | 166 | 0.0 | 0.0 | 0.00 | 0.00 | 0.00 | 81 | 1010.0 |
| 20260902144023 | 55 | 166 | 0.0 | 0.0 | 0.00 | 0.00 | 0.00 | 81 | 1010.0 |
| 20260902143604 | 55 | 166 | 0.0 | 0.0 | 0.00 | 0.00 | 0.00 | 81 | 1010.0 |
| 20260902143104 | 55 | 166 | 0.0 | 0.0 | 0.00 | 0.00 | 0.00 | 81 | 1010.0 |
| 20260902142605 | 55 | 166 | 0.0 | 0.0 | 0.00 | 0.00 | 0.00 | 82 | 1010.1 |
| 20260902142104 | 54 | 166 | 0.0 | 0.0 | 0.00 | 0.00 | 0.00 | 81 | 1010.1 |
| 20260902142022 | 54 | 166 | 0.0 | 0.0 | 0.00 | 0.00 | 0.00 | 82 | 1010.1 |
| 20260902141604 | 54 | 166 | 0.0 | 0.0 | 0.00 | 0.00 | 0.00 | 82 | 1010.1 |
| 20260902141104 | 54 | 166 | 0.0 | 0.0 | 0.00 | 0.00 | 0.00 | 82 | 1010.1 |
| 20260902141022 | 54 | 166 | 0.0 | 0.0 | 0.00 | 0.00 | 0.00 | 82 | 1010.2 |
| 20260902140104 | 54 | 166 | 0.0 | 0.0 | 0.00 | 0.00 | 0.00 | 82 | 1010.1 |
| 20260902140025 | 54 | 166 | 0.0 | 0.0 | 0.00 | 0.00 | 0.00 | 82 | 1010.1 |
| 20260902135603 | 54 | 166 | 0.0 | 0.0 | 0.00 | 0.00 | 0.00 | 82 | 1010.1 |
| 20260902135104 | 54 | 166 | 0.0 | 0.0 | 0.00 | 0.00 | 0.00 | 82 | 1010.1 |
| 20260902135022 | 54 | 166 | 0.0 | 0.0 | 0.00 | 0.00 | 0.00 | 81 | 1010.1 |
| 20260902134604 | 54 | 166 | 0.0 | 0.0 | 0.00 | 0.00 | 0.00 | 81 | 1010.1 |
| 20260902134022 | 54 | 166 | 0.0 | 0.0 | 0.00 | 0.00 | 0.00 | 81 | 1010.2 |
| 20260902133604 | 54 | 166 | 0.0 | 0.0 | 0.00 | 0.00 | 0.00 | 81 | 1010.2 |
| 20260902133103 | 54 | 166 | 0.0 | 0.0 | 0.00 | 0.00 | 0.00 | 81 | 1010.2 |
| 20260902133022 | 54 | 166 | 0.0 | 0.0 | 0.00 | 0.00 | 0.00 | 81 | 1010.1 |
| 20260902132604 | 54 | 166 | 0.0 | 0.0 | 0.00 | 0.00 | 0.00 | 81 | 1010.1 |
| 20260902132103 | 54 | 166 | 0.0 | 0.0 | 0.00 | 0.00 | 0.00 | 81 | 1010.3 |
| 20260902132022 | 54 | 166 | 0.0 | 0.0 | 0.00 | 0.00 | 0.00 | 81 | 1010.3 |
| 20260902131604 | 54 | 166 | 0.0 | 0.0 | 0.00 | 0.00 | 0.00 | 81 | 1010.3 |
| 20260902131103 | 54 | 166 | 0.0 | 0.0 | 0.00 | 0.00 | 0.00 | 81 | 1010.3 |
| 20260902131022 | 54 | 166 | 0.0 | 0.0 | 0.00 | 0.00 | 0.00 | 81 | 1010.3 |
| 20260902130604 | 54 | 166 | 0.0 | 0.0 | 0.00 | 0.00 | 0.00 | 81 | 1010.3 |
| 20260902130022 | 53 | 166 | 0.0 | 0.0 | 0.00 | 0.00 | 0.00 | 82 | 1010.4 |
| 20260902125604 | 53 | 166 | 0.0 | 0.0 | 0.00 | 0.00 | 0.00 | 82 | 1010.4 |
| 20260902125103 | 53 | 166 | 0.0 | 0.0 | 0.00 | 0.00 | 0.00 | 82 | 1010.3 |
| 20260902125022 | 53 | 166 | 0.0 | 0.0 | 0.00 | 0.00 | 0.00 | 82 | 1010.4 |
| 20260902124604 | 53 | 166 | 0.0 | 0.0 | 0.00 | 0.00 | 0.00 | 82 | 1010.4 |
| 20260902124103 | 53 | 166 | 0.0 | 0.0 | 0.00 | 0.00 | 0.00 | 82 | 1010.4 |
| 20260902124022 | 53 | 166 | 0.0 | 0.0 | 0.00 | 0.00 | 0.00 | 82 | 1010.4 |
| 20260902123603 | 53 | 166 | 0.0 | 0.0 | 0.00 | 0.00 | 0.00 | 82 | 1010.4 |
| 20260902123104 | 53 | 166 | 0.0 | 0.0 | 0.00 | 0.00 | 0.00 | 82 | 1010.5 |
| 20260902123022 | 53 | 166 | 0.0 | 0.0 | 0.00 | 0.00 | 0.00 | 82 | 1010.5 |
| 20260902122604 | 53 | 166 | 0.0 | 0.0 | 0.00 | 0.00 | 0.00 | 82 | 1010.5 |
| 20260902122104 | 53 | 166 | 0.0 | 0.0 | 0.00 | 0.00 | 0.00 | 82 | 1010.5 |